Regional Weather Roundup
Issued by NWS Kansas City/Pleasant Hill, MO

Home | Current Version | Previous Version | Text Only | Print | Product List | Glossary On
Versions: 1 2 3 4 5 6 7 8 9 10 11 12 13 14 15 16 17 18 19 20 21 22 23 24 25 26 27 28 29 30 31 32 33 34 35 36 37 38 39 40 41 42 43 44 45 46 47 48 49 50
000
ASUS43 KEAX 181911
RWREAX

WEATHER ROUNDUP FOR EASTERN KANSAS AND NORTHWEST MISSOURI
NATIONAL WEATHER SERVICE KANSAS CITY/PLEASANT HILL MO
100 PM CST THU DEC 18 2014

KSZ040-057-103>105-MOZ028-029-037-043-182000-
...KANSAS CITY METROPOLITAN AREA...

CITY           SKY/WX    TMP DP  RH WIND       PRES   REMARKS
K.C. INTL      FLURRIES  32  28  85 E6        30.20F WCI  26
K.C. DOWNTOWN  CLOUDY    33  29  85 NE8       30.21F WCI  26
LEES SUMMIT    CLOUDY    33  29  85 NE6       30.20F WCI  28
OLATHE - IXD   CLOUDY    33  30  88 NE5       30.19F WCI  29
OLATHE - OJC   CLOUDY    33  30  88 E3        30.18F FOG
LAWRENCE       CLOUDY    33  29  85 E3        30.21F FOG

$$

MOZ001>008-011>017-020>025-030>033-038>040-044>046-053-054-182000-
...NORTHERN AND CENTRAL MISSOURI...

CITY           SKY/WX    TMP DP  RH WIND       PRES   REMARKS
ST. JOSEPH     LGT SNOW  31  27  85 NE3       30.23F FOG
MOSBY          LGT SNOW  32  30  93 E3        30.22F
WARRENSBURG    CLOUDY    32  30  93 NE5       30.20F FOG     WCI  27
WHITEMAN AFB   CLOUDY    33  30  89 E5        30.20F WCI  28
CLINTON        CLOUDY    36  34  93 E5        30.20F WCI  32
SEDALIA        CLOUDY    33  30  88 E7        30.21F FOG     WCI  27
WARSAW         NOT AVBL
MARSHALL       LGT SNOW  34  32  93 E6        30.23  VSB 1   WCI  29
CHILLICOTHE      N/A     30  26  85 E3        30.25F
KIRKSVILLE     CLOUDY    29  25  85 CALM      30.24F FOG

$$

MOZ041-047>049-056>058-063>065-088>090-097-182000-
...EASTERN AND SOUTHERN MISSOURI...

CITY           SKY/WX    TMP DP  RH WIND       PRES   REMARKS
ST. LOUIS INTL CLOUDY    35  27  72 NE3       30.24F
SPIRIT OF STL  LGT SNOW  32  28  85 E5        30.24F FOG     WCI  27
COLUMBIA       CLOUDY    33  29  85 E5        30.21F FOG     WCI  29
JEFFERSON CITY CLOUDY    34  30  85 VRB6      30.23F FOG     WCI  29
MEXICO         LGT SNOW  34  32  93 E5        30.22F WCI  30
HANNIBAL       CLOUDY    32  23  69 NE3       30.24F
ROLLA          CLOUDY    32  30  92 MISG      30.17F FOG
LEBANON        CLOUDY    36  32  87 S3        30.17S
OSAGE BEACH    CLOUDY    34  30  86 E5        30.19F WCI  30
SPRINGFIELD    CLOUDY    37  35  92 CALM      30.16F
BRANSON        CLOUDY    39  37  93 SE6       30.17F WCI  35
NEVADA         CLOUDY    34  34 100 CALM      30.18F FOG
JOPLIN         CLOUDY    39  36  89 W5        30.17F
WEST PLAINS    CLOUDY    36  32  85 SE3       30.17F

$$

IAZ060-094-KSZ022-034>040-054-083-096-NEZ052-066-093-182000-
...KANSAS...SOUTHEAST NEBRASKA AND IOWA...

CITY           SKY/WX    TMP DP  RH WIND       PRES   REMARKS
TOPEKA         CLOUDY    33  30  88 CALM      30.22F
MANHATTAN      CLOUDY    33  29  85 CALM      30.20F
EMPORIA        CLOUDY    32  29  88 CALM      30.18F
CHANUTE        CLOUDY    34  34 100 N3        30.18F FOG
WICHITA        CLOUDY    34  31  88 N5        30.17F FOG     WCI  30
OMAHA          FLURRIES  30  25  81 S6        30.23F WCI  24
LINCOLN        CLOUDY    31  26  82 S5        30.21F WCI  26
FALLS CITY     CLOUDY    30  26  85 NE5       30.22F WCI  25
LAMONI         CLOUDY    28  24  85 CALM      30.22F
DES MOINES     FLURRIES  30  20  66 CALM      30.24F

$$



USA.gov is the U.S. government's official web portal to all federal, state and local government web resources and services.